Content
SEND FEEDBACK

Daily
Averages
Monthly
Summary
United States of America

REFUGIO, TEXAS


Home > North America > United States > Texas
Elevation: 4 feet     Latitude: 28 18N     Longitude: 097 17W

WEATHER
 
SELECT A DAY
Number of Records: 208,760;   Date Range: 1/2/95 - 7/26/14
 
SHARE

PRINT THIS DATA

[ ← Previous Day ]
WEATHER ALMANAC - FEBRUARY 16, 2013
[ Next Day → ]
[ °C ]   °F
Weather ElementAverageHighLow
Temperature54.1 °F64 °F (1:53 pm)46 °F (6:53 am)
Dewpoint33 °F42.1 °F (11:53 pm)24.1 °F (9:53 am)
Humidity47.2 %69 % (11:53 pm)23 % (1:53 pm)
Barometer30.37 in30.48 in (8:53 am)30.29 in (11:53 pm)
Wind Speed9.3 mph18.4 mph (3:53 am)
Wind Gust24.2 mph (2:53 am)
Weather ElementAverage
Visibility10 mi
Wind DirectionSSE (166.1 °)

Weather ElementTotal
Precipitation---
Heating Degree Days10 (Base 65)
Growing Degree Days5 (Base 50)
Averaged from 23 records on February 16, 2013
WEATHER CONDITIONS BREAKOUT
WIND DIRECTION BREAKOUT
WEATHER BY HOUR - FEBRUARY 16, 2013
[ °C ]   °F
Local TimeTemperatureDewpointHumidityBarometerVisibilityWind DirectionWind SpeedGust SpeedPrecipitationEventsConditions
1:53 AM53.1 °F39.0 °F59 %30.37 in10.0 miNorth (360°)12.7 mphOvercast
2:53 AM51.1 °F37.9 °F61 %30.37 in10.0 miNorth (10°)17.3 mph24.2 mphOvercast
3:53 AM50.0 °F32.0 °F50 %30.38 in10.0 miNorth (10°)18.4 mph24.2 mphOvercast
4:53 AM48.0 °F33.1 °F56 %30.40 in10.0 miNorth (350°)11.5 mphClear
5:53 AM46.9 °F30.0 °F52 %30.41 in10.0 miNorth (360°)10.4 mphClear
6:53 AM46.0 °F30.9 °F56 %30.43 in10.0 miNorth (360°)15.0 mphClear
7:53 AM46.9 °F30.0 °F52 %30.46 in10.0 miNorth (360°)15.0 mphClear
8:53 AM50.0 °F28.9 °F44 %30.48 in10.0 miNNE (20°)11.5 mphClear
9:53 AM54.0 °F24.1 °F31 %30.48 in10.0 miNorth (10°)11.5 mphClear
10:53 AM55.9 °F25.0 °F30 %30.48 in10.0 miNNE (30°)9.2 mphClear
11:53 AM57.9 °F24.1 °F27 %30.46 in10.0 miVariable5.8 mphClear
12:53 PM61.0 °F26.1 °F26 %30.41 in10.0 miVariable4.6 mphClear
1:53 PM64.0 °F25.0 °F23 %30.37 in10.0 miNNW (330°)6.9 mphClear
2:53 PM62.1 °F28.9 °F29 %30.35 in10.0 miSE (130°)8.1 mphClear
3:53 PM62.1 °F33.1 °F34 %30.32 in10.0 miESE (120°)9.2 mphClear
4:53 PM60.1 °F36.0 °F41 %30.31 in10.0 miSSE (160°)11.5 mphClear
5:53 PM57.0 °F37.0 °F47 %30.30 in10.0 miSouth (170°)6.9 mphClear
6:53 PM55.0 °F37.9 °F53 %30.30 in10.0 miSSE (160°)4.6 mphClear
7:53 PM53.1 °F39.0 °F59 %30.31 in10.0 miSouth (180°)4.6 mphClear
8:53 PM52.0 °F39.0 °F61 %30.31 in10.0 miSouth (170°)4.6 mphClear
9:53 PM51.1 °F39.0 °F63 %30.32 in10.0 miSouth (170°)4.6 mphClear
10:53 PM54.0 °F41.0 °F62 %30.31 in10.0 miSouth (180°)4.6 mphClear
11:53 PM52.0 °F42.1 °F69 %30.29 in10.0 miSouth (180°)4.6 mphClear
Hourly data recorded from KRKP, located miles away from Refugio, Texas







STORIES FROM OUR PARTNERS